Skagway, AK

12:44 PM AKST on December 17, 2017 (GMT -0900)
Skagway

Weather History for PAGY - December, 2013

Change the Weather History Date:

Friday, December 6, 2013

  Actual Average Record
Temperature  
Mean Temperature 22 °F -  
Max Temperature 24 °F 33 °F 52 °F (2017)
Min Temperature 19 °F 25 °F -3 °F (1970)
Degree Days  
Heating Degree Days 44    
Moisture  
Dew Point 5 °F    
Average Humidity 50    
Maximum Humidity 63    
Minimum Humidity 44    
Precipitation  
Precipitation 0.00 in - - ()
Sea Level Pressure  
Sea Level Pressure 30.62 in    
Wind  
Wind Speed 11 mph (NE)    
Max Wind Speed 17 mph    
Max Gust Speed 28 mph    
Visibility 10 miles    
Events      
Averages and records for this station are not official NWS values.
T = Trace of Precipitation, MM = Missing Value Source: NWS Daily Summary

Daily Weather History Graph

Daily Weather History Graph

Search for Another Location

Airport or City:

Trip Planner

Search our weather history database for the weather conditions in past years. The results will help you decide how hot, cold, wet, or windy it might be!

Date:

Astronomy

Dec. 06, 2013 Rise Set
Actual Time 8:41 AM AKST 3:02 PM AKST
Civil Twilight 7:47 AM AKST 3:57 PM AKST
Nautical Twilight 6:52 AM AKST 4:51 PM AKST
Astronomical Twilight 6:02 AM AKST 5:41 PM AKST
Moon 11:10 AM AKST (12/6) 8:31 PM AKST (12/6)
Length of Visible Light 8h 09m
Length of Day
6h 21m
Waxing Crescent, 20% of the Moon is Illuminated
Dec 6
Waxing Crescent
Dec 9
First Quarter
Dec 17
Full
Dec 25
Last Quarter
Jan 1
New

Hourly Weather History & Observations

Time (AKST) Temp. Windchill Dew Point Humidity Pressure Visibility Wind Dir Wind Speed Gust Speed Precip Events Conditions
12:53 AM 19.9 °F 5.2 °F 3.0 °F 48% 30.70 in 10.0 mi NE 17.3 mph 27.6 mph N/A   Clear
1:53 AM 19.0 °F 5.0 °F 1.9 °F 47% 30.69 in 10.0 mi NE 15.0 mph 24.2 mph N/A   Clear
3:53 AM 19.0 °F 6.8 °F 1.0 °F 46% 30.68 in 10.0 mi NE 11.5 mph 25.3 mph N/A   Clear
4:53 AM 19.9 °F 5.2 °F 3.0 °F 48% 30.67 in 10.0 mi NE 17.3 mph 25.3 mph N/A   Clear
5:53 AM 19.9 °F 5.7 °F 1.9 °F 46% 30.66 in 10.0 mi NE 16.1 mph 24.2 mph N/A   Clear
6:53 AM 19.9 °F 7.3 °F 1.9 °F 46% 30.66 in 10.0 mi NE 12.7 mph 20.7 mph N/A   Clear
7:53 AM 19.0 °F 5.6 °F 1.9 °F 47% 30.66 in 10.0 mi NNE 13.8 mph 21.9 mph N/A   Clear
8:53 AM 19.0 °F 6.1 °F 1.9 °F 47% 30.66 in 10.0 mi NNE 12.7 mph 21.9 mph N/A   Clear
9:53 AM 19.0 °F 6.8 °F 1.0 °F 46% 30.65 in 10.0 mi NNE 11.5 mph 18.4 mph N/A   Clear
10:53 AM 19.0 °F 7.5 °F 1.9 °F 47% 30.65 in 10.0 mi NNE 10.4 mph - N/A   Clear
11:53 AM 19.9 °F 7.9 °F 1.0 °F 44% 30.64 in 10.0 mi NE 11.5 mph - N/A   Clear
12:53 PM 21.0 °F 8.1 °F 1.9 °F 44% 30.63 in 10.0 mi NE 13.8 mph - N/A   Mostly Cloudy
1:53 PM 21.9 °F 12.5 °F 3.0 °F 44% 30.62 in 10.0 mi NE 8.1 mph - N/A   Overcast
2:53 PM 23.0 °F 12.4 °F 3.9 °F 44% 30.61 in 10.0 mi NE 10.4 mph - N/A   Overcast
3:53 PM 23.0 °F 14.7 °F 5.0 °F 46% 30.61 in 10.0 mi NE 6.9 mph - N/A   Overcast
4:53 PM 24.1 °F - 7.0 °F 48% 30.60 in 10.0 mi Calm Calm - N/A   Mostly Cloudy
5:53 PM 23.0 °F - 8.1 °F 53% 30.59 in 10.0 mi Calm Calm - N/A   Partly Cloudy
6:53 PM 23.0 °F - 9.0 °F 55% 30.58 in 10.0 mi Calm Calm - N/A   Scattered Clouds
7:53 PM 21.9 °F - 10.0 °F 60% 30.56 in 10.0 mi Calm Calm - N/A   Scattered Clouds
8:53 PM 23.0 °F - 10.9 °F 60% 30.56 in 10.0 mi Calm Calm - N/A   Partly Cloudy
9:53 PM 23.0 °F - 10.9 °F 60% 30.55 in 10.0 mi Calm Calm - N/A   Mostly Cloudy
10:53 PM 23.0 °F - 12.0 °F 63% 30.55 in 9.0 mi Calm Calm - N/A   Overcast
11:53 PM 24.1 °F - 12.9 °F 62% 30.53 in 10.0 mi Calm Calm - N/A   Mostly Cloudy